Marrakech, Morocco

8:30 PM WEST on September 29, 2016 (GMT +0100)
Marrakech

Weather History for 60230 - July, 2013

Change the Weather History Date:

Saturday, July 27, 2013

  Actual Average Record
Temperature  
Mean Temperature 79 °F -  
Max Temperature 94 °F - - ()
Min Temperature 64 °F - - ()
Cooling Degree Days 14    
Growing Degree Days 29 (Base 50)    
Moisture  
Dew Point 60 °F    
Average Humidity 55    
Maximum Humidity 94    
Minimum Humidity 17    
Precipitation  
Precipitation 0.00 in - - ()
Sea Level Pressure  
Sea Level Pressure 29.98 in    
Wind  
Wind Speed 7 mph ()    
Max Wind Speed 13 mph    
Max Gust Speed -    
Visibility 6.1 miles    
Events      
T = Trace of Precipitation, MM = Missing Value Source: Averaged Metar Reports

Daily Weather History Graph

Daily Weather History Graph

Search for Another Location

Airport or City:

Trip Planner

Search our weather history database for the weather conditions in past years. The results will help you decide how hot, cold, wet, or windy it might be!

Date:

Astronomy

Jul. 27, 2013 Rise Set
Actual Time 5:45 AM WET 7:31 PM WET
Civil Twilight 5:18 AM WET 7:58 PM WET
Nautical Twilight 4:45 AM WET 8:30 PM WET
Astronomical Twilight 4:11 AM WET 9:04 PM WET
Moon 10:37 PM WET (7/27) 10:46 AM WET (7/27)
Length of Visible Light 14h 40m
Length of Day
13h 46m
Waning Gibbous, 72% of the Moon is Illuminated
Jul 27
Waning Gibbous
Jul 29
Last Quarter
Aug 6
New
Aug 14
First Quarter
Aug 21
Full

Hourly Weather History & Observations

Time (WET) Temp. Heat Index Dew Point Humidity Pressure Visibility Wind Dir Wind Speed Gust Speed Precip Events Conditions
12:00 AM 72 °F - 62 °F 62% 29.93 in 6 mi WSW 9.2 mph - -  
12:00 AM 73.4 °F - 60.8 °F 65% 29.98 in - WSW 9.2 mph - N/A   Clear
12:30 AM 71.6 °F - 62.6 °F 73% 29.98 in - WSW 8.1 mph - N/A   Clear
1:00 AM 69.8 °F - 62.6 °F 78% 29.98 in - SW 9.2 mph - N/A   Clear
1:30 AM 69.8 °F - 62.6 °F 78% 29.98 in - SW 8.1 mph - N/A   Clear
2:00 AM 69.8 °F - 62.6 °F 78% 29.98 in - SW 9.2 mph - N/A   Clear
2:30 AM 68.0 °F - 62.6 °F 83% 29.98 in - SW 9.2 mph - N/A   Clear
3:00 AM 68 °F - 62 °F 76% 29.92 in 6 mi WSW 8.1 mph - -  
3:00 AM 68.0 °F - 62.6 °F 83% 29.98 in - WSW 8.1 mph - N/A   Clear
3:30 AM 68.0 °F - 62.6 °F 83% 29.95 in - SW 6.9 mph - N/A   Clear
4:00 AM 68.0 °F - 62.6 °F 83% 29.95 in - SW 8.1 mph - N/A   Clear
4:30 AM 68.0 °F - 62.6 °F 83% 29.95 in - SW 8.1 mph - N/A   Clear
5:00 AM 66.2 °F - 62.6 °F 88% 29.98 in - SW 5.8 mph - N/A   Clear
5:30 AM 66.2 °F - 62.6 °F 88% 29.98 in - WSW 4.6 mph - N/A   Clear
6:00 AM 65 °F - 62 °F 86% 29.96 in 6 mi WSW 5.8 mph - -  
6:00 AM 64.4 °F - 62.6 °F 94% 29.98 in - WSW 5.8 mph - N/A   Clear
6:30 AM 64.4 °F - 62.6 °F 94% 30.01 in - West 3.5 mph - N/A   Clear
7:00 AM 66.2 °F - 62.6 °F 88% 30.01 in - West 3.5 mph - N/A   Clear
7:30 AM 68.0 °F - 64.4 °F 88% 30.01 in - WSW 3.5 mph - N/A   Clear
8:00 AM 69.8 °F - 64.4 °F 83% 30.01 in - West 4.6 mph - N/A   Clear
8:30 AM 71.6 °F - 64.4 °F 78% 30.01 in - West 3.5 mph - N/A   Clear
9:00 AM 74 °F - 64 °F 63% 29.95 in 6 mi WSW 1.2 mph - -  
9:00 AM 73.4 °F - 64.4 °F 73% 30.01 in - Variable 2.3 mph - N/A   Clear
9:30 AM 75.2 °F - 64.4 °F 69% 30.01 in - WNW 3.5 mph - N/A   Clear
10:00 AM 77.0 °F - 64.4 °F 65% 30.01 in - Variable 3.5 mph - N/A   Clear
10:30 AM 78.8 °F - 64.4 °F 61% 30.01 in - WNW 4.6 mph - N/A   Clear
11:00 AM 82.4 °F 83.4 °F 62.6 °F 51% 30.01 in - WNW 3.5 mph - N/A   Clear
11:30 AM 84.2 °F 83.8 °F 59.0 °F 42% 30.01 in 6.2 mi NNW 4.6 mph - N/A   Partly Cloudy
12:00 PM 86 °F - 58 °F 29% 29.91 in 6 mi NNW 4.6 mph - -   Scattered Clouds
12:00 PM 86.0 °F 84.9 °F 57.2 °F 37% 30.01 in 6.2 mi NW 4.6 mph - N/A   Partly Cloudy
12:30 PM 87.8 °F 86.5 °F 57.2 °F 35% 30.01 in 6.2 mi Variable 2.3 mph - N/A   Partly Cloudy
1:00 PM 89.6 °F 88.1 °F 57.2 °F 33% 29.98 in 6.2 mi Variable 3.5 mph - N/A   Partly Cloudy
1:30 PM 91.4 °F 89.4 °F 55.4 °F 29% 29.98 in 6.2 mi Variable 6.9 mph - N/A   Partly Cloudy
2:00 PM 91.4 °F 89.4 °F 55.4 °F 29% 29.98 in 6.2 mi WNW 8.1 mph - N/A   Partly Cloudy
2:30 PM 91.4 °F - 51.8 °F 26% 29.98 in 6.2 mi WNW 9.2 mph - N/A   Partly Cloudy
3:00 PM 93 °F - 54 °F 17% 29.85 in 6 mi West 6.9 mph - -   Scattered Clouds
3:00 PM 93.2 °F 90.8 °F 53.6 °F 26% 29.95 in 6.2 mi WNW 5.8 mph - N/A   Partly Cloudy
3:30 PM 93.2 °F 91.3 °F 55.4 °F 28% 29.95 in 6.2 mi SW 6.9 mph - N/A   Partly Cloudy
4:00 PM 93.2 °F 90.8 °F 53.6 °F 26% 29.95 in 6.2 mi West 8.1 mph - N/A   Partly Cloudy
4:30 PM 93.2 °F 91.3 °F 55.4 °F 28% 29.95 in 6.2 mi West 8.1 mph - N/A   Partly Cloudy
5:00 PM 93.2 °F 91.3 °F 55.4 °F 28% 29.95 in 6.2 mi WNW 5.8 mph - N/A   Partly Cloudy
5:30 PM 93.2 °F 91.3 °F 55.4 °F 28% 29.95 in 6.2 mi WSW 10.4 mph - N/A   Partly Cloudy
6:00 PM 94 °F - 55 °F 17% 29.83 in 6 mi West 8.1 mph - -   Scattered Clouds
6:00 PM 93.2 °F 91.3 °F 55.4 °F 28% 29.95 in 6.2 mi West 9.2 mph - N/A   Partly Cloudy
6:30 PM 93.2 °F 90.8 °F 53.6 °F 26% 29.95 in 6.2 mi West 9.2 mph - N/A   Partly Cloudy
7:00 PM 91.4 °F 89.1 °F 53.6 °F 28% 29.95 in 6.2 mi West 8.1 mph - N/A   Partly Cloudy
7:30 PM 91.4 °F 89.4 °F 55.4 °F 29% 29.95 in 6.2 mi WSW 8.1 mph - N/A   Scattered Clouds
8:00 PM 89.6 °F 87.7 °F 55.4 °F 31% 29.98 in 6.2 mi WSW 6.9 mph - N/A   Partly Cloudy
8:30 PM 87.8 °F 87.1 °F 59.0 °F 38% 29.98 in 6.2 mi WSW 11.5 mph - N/A   Partly Cloudy
9:00 PM 85 °F - 61 °F 34% 29.91 in 6 mi WNW 11.5 mph - -   Scattered Clouds
9:00 PM 84.2 °F 84.4 °F 60.8 °F 45% 30.01 in 6.2 mi WNW 12.7 mph - N/A   Partly Cloudy
9:30 PM 82.4 °F 82.9 °F 60.8 °F 48% 30.01 in 6.2 mi WNW 11.5 mph - N/A   Partly Cloudy
10:00 PM 78.8 °F - 62.6 °F 57% 30.04 in 6.2 mi WNW 11.5 mph - N/A   Partly Cloudy
10:30 PM 77.0 °F - 60.8 °F 57% 30.04 in - West 9.2 mph - N/A   Clear
11:00 PM 77.0 °F - 62.6 °F 61% 30.06 in - WSW 8.1 mph - N/A   Clear
11:30 PM 75.2 °F - 62.6 °F 65% 30.06 in - WSW 6.9 mph - N/A   Clear